Weather History for KCNO - August, 2013

Change the Weather History Date:

Monday, August 26, 2013

  Actual Average Record
Temperature  
Mean Temperature 78 °F -  
Max Temperature 95 °F 91 °F 107 °F (2011)
Min Temperature 66 °F 58 °F 54 °F (2002)
Cooling Degree Days 14    
Growing Degree Days 28 (Base 50)    
Moisture  
Dew Point 59 °F    
Average Humidity 50    
Maximum Humidity 70    
Minimum Humidity 35    
Precipitation  
Precipitation 0.00 in - - ()
Sea Level Pressure  
Sea Level Pressure 29.87 in    
Wind  
Wind Speed 1 mph (West)    
Max Wind Speed 7 mph    
Max Gust Speed -    
Visibility 9 miles    
Events      
Averages and records for this station are not official NWS values.
T = Trace of Precipitation, MM = Missing Value Source: NWS Daily Summary

Daily Weather History Graph

Daily Weather History Graph

Search for Another Location

Airport or City:

Trip Planner

Search our weather history database for the weather conditions in past years. The results will help you decide how hot, cold, wet, or windy it might be!

Date:

Astronomy

Aug. 26, 2013 Rise Set
Actual Time 6:20 AM PDT 7:23 PM PDT
Civil Twilight 5:54 AM PDT 7:49 PM PDT
Nautical Twilight 5:23 AM PDT 8:19 PM PDT
Astronomical Twilight 4:52 AM PDT 8:51 PM PDT
Moon 10:57 PM PDT (8/26) 12:07 PM PDT (8/26)
Length of Visible Light 13h 54m
Length of Day
13h 03m
Waning Gibbous, 65% of the Moon is Illuminated
Aug 26
Waning Gibbous
Aug 28
Last Quarter
Sep 5
New
Sep 12
First Quarter
Sep 19
Full

Hourly Weather History & Observations

Time (PDT) Temp. Heat Index Dew Point Humidity Pressure Visibility Wind Dir Wind Speed Gust Speed Precip Events Conditions
12:53 AM 68.0 °F - 55.0 °F 63% 29.90 in 5.0 mi Calm Calm - N/A   Haze
1:53 AM 69.1 °F - 53.1 °F 57% 29.89 in 6.0 mi Calm Calm - N/A   Haze
2:53 AM 68.0 °F - 55.0 °F 63% 29.90 in 5.0 mi Calm Calm - N/A   Haze
3:53 AM 69.1 °F - 55.9 °F 63% 29.90 in 6.0 mi Calm Calm - N/A   Haze
4:53 AM 66.9 °F - 57.0 °F 70% 29.91 in 5.0 mi Calm Calm - N/A   Haze
5:53 AM 68.0 °F - 55.9 °F 65% 29.91 in 5.0 mi Calm Calm - N/A   Haze
6:53 AM 66.9 °F - 55.9 °F 68% 29.92 in 10.0 mi Calm Calm - N/A   Scattered Clouds
7:53 AM 73.0 °F - 55.9 °F 55% 29.92 in 10.0 mi Calm Calm - N/A   Scattered Clouds
8:53 AM 75.0 °F - 60.1 °F 60% 29.92 in 10.0 mi Calm Calm - N/A   Scattered Clouds
9:53 AM 84.0 °F 84.4 °F 61.0 °F 46% 29.92 in 10.0 mi Calm Calm - N/A   Scattered Clouds
10:53 AM 88.0 °F 88.7 °F 63.0 °F 43% 29.91 in 10.0 mi Calm Calm - N/A   Mostly Cloudy
11:53 AM 91.9 °F 91.8 °F 61.0 °F 35% 29.90 in 10.0 mi North 3.5 mph - N/A   Mostly Cloudy
12:53 PM 91.9 °F 91.8 °F 61.0 °F 35% 29.88 in 10.0 mi Calm Calm - N/A   Mostly Cloudy
1:53 PM 91.9 °F 91.8 °F 61.0 °F 35% 29.86 in 10.0 mi South 5.8 mph - N/A   Mostly Cloudy
2:53 PM 91.0 °F 90.9 °F 61.0 °F 36% 29.84 in 10.0 mi South 5.8 mph - N/A   Mostly Cloudy
3:53 PM 91.0 °F 91.5 °F 62.1 °F 38% 29.84 in 10.0 mi SE 4.6 mph - N/A   Mostly Cloudy
4:53 PM 91.0 °F 91.9 °F 63.0 °F 39% 29.82 in 10.0 mi North 3.5 mph - N/A   Mostly Cloudy
5:53 PM 88.0 °F 90.3 °F 66.0 °F 48% 29.82 in 10.0 mi North 5.8 mph - N/A   Mostly Cloudy
6:53 PM 88.0 °F 88.7 °F 63.0 °F 43% 29.81 in 10.0 mi West 5.8 mph - N/A   Mostly Cloudy
7:53 PM 84.9 °F 84.4 °F 59.0 °F 41% 29.83 in 10.0 mi West 6.9 mph - N/A   Mostly Cloudy
8:53 PM 80.1 °F 80.6 °F 57.9 °F 47% 29.85 in 10.0 mi West 5.8 mph - N/A   Clear
9:53 PM 78.1 °F - 55.9 °F 46% 29.85 in 10.0 mi West 3.5 mph - N/A   Clear
10:53 PM 78.1 °F - 57.9 °F 50% 29.85 in 10.0 mi Calm Calm - N/A   Clear
11:53 PM 78.1 °F - 54.0 °F 43% 29.84 in 9.0 mi Calm Calm - N/A   Clear